Dati stazioni meteo Trentino Alto Adige - Rete MeteoNetwork


Regione Trentino Alto Adige - Nazionale

Dati realtime - Dati giornalieri

Sfoglia tabella
Regione selezionata: Trentino Alto Adige
Filtra dati per regione

Stazione Prov. Temperatura Umidità Dewpoint Pioggia Rateo Pioggia Vento Pressione Aggiorn.
Giovo TN 19.8°C 73% 14.8°C 1.2 mm 0 mm/h 0 km/h 1010.3 hPa 15:39
Trento TN 23.6°C 60% 15.4°C 0.3 mm 0 mm/h 8.7 km/h 1006 hPa 15:39
Vattaro TN 17.7°C 80% 14.2°C 2.4 mm 0 mm/h 0 km/h 1008.6 hPa 15:41
Trento TN 22.2°C 68% 16°C 0.7 mm 0 mm/h 13.7 km/h 1007.6 hPa 15:41
Lavis TN 21.9°C 65% 15°C 0.8 mm 0 mm/h 13 km/h 1008.5 hPa 15:35
Padergnone TN 21.5°C 74% 16.7°C 0.6 mm 0 mm/h 3.9 km/h 1008.3 hPa 15:31
Ortisei BZ 5°C 100% 5°C 4.6 mm 0.8 mm/h 4.2 km/h 1014.9 hPa 15:29
Trento TN 20.4°C 73% 15.4°C 1 mm 0 mm/h 0 km/h 1009.1 hPa 15:25
Bolzano BZ 14.1°C 0% 12.2°C 0 mm 0 mm/h 0 km/h 1008.4 hPa 15:41
Daiano TN 16.2°C 78% 12.3°C 4.8 mm 0 mm/h 0 km/h 1008.3 hPa 15:40
Arco TN 21.9°C 0% 17.7°C 0.5 mm 0 mm/h 4.8 km/h 1007.8 hPa 15:10
Riva del Garda TN 21.6°C 76% 17.2°C 0.5 mm 0 mm/h 3.2 km/h 1007.5 hPa 15:25
Ala TN 22.2°C 69% 16.2°C 0.2 mm 0 mm/h 14.4 km/h 1007.1 hPa 15:38
Levico Terme TN 21.8°C 73% 16.7°C 2.4 mm 0 mm/h 3.3 km/h 1007.8 hPa 15:42
Rovereto TN 23.7°C 64% 16.4°C 1.6 mm 0 mm/h 8 km/h 1023.3 hPa 15:43
Avio TN 22.2°C 72% 16.9°C 0.3 mm 0 mm/h 2.2 km/h 1008.2 hPa 15:42
Arco TN 23.4°C 70% 17.6°C 0.6 mm 0 mm/h 0 km/h 1008.1 hPa 15:38
Trambileno TN 20.4°C 74% 15.6°C 0.8 mm 0 mm/h 0 km/h 1006.1 hPa 15:39
Merano BZ 21.2°C 71% 15.6°C 0 mm 0 mm/h 0 km/h 1007.9 hPa 15:36
Marebbe BZ 14.1°C 89% 12.2°C 0 mm 0 mm/h 0 km/h 1008.4 hPa 15:41
Folgaria TN 16.1°C 85% 13.5°C 1.4 mm 0 mm/h 1.6 km/h 0 hPa 15:41
Baselga di Pinè TN 16.8°C 77% 12.8°C 1.4 mm 0 mm/h 4.7 km/h 1008.6 hPa 15:41
Andalo TN 14.9°C 89% 13.1°C 2.6 mm 0 mm/h 6.4 km/h 1005.6 hPa 15:41
Terzolas TN 17.9°C 100% 17.9°C 3.8 mm 0 mm/h 0 km/h 927 hPa 15:39
Besenello TN 24.1°C 64% 16.9°C 1.8 mm 0 mm/h 4.3 km/h 1007.6 hPa 15:39
Trento TN 21.7°C 72% 16.4°C 2 mm 0 mm/h 0 km/h 1007.3 hPa 15:41
Ala TN 22.2°C 0% 0°C 0.4 mm 0 mm/h 0 km/h 0 hPa 15:30
Ala TN 17.9°C 0% 0°C 0.2 mm 0 mm/h 2.2 km/h 0 hPa 15:30
Aldeno TN 23.6°C 0% 0°C 2.6 mm 0 mm/h 13.3 km/h 0 hPa 15:30
Arco TN 21.8°C 0% 0°C 0.6 mm 0 mm/h 0 km/h 0 hPa 15:15
Bezzecca TN 17.4°C 0% 0°C 0.8 mm 0 mm/h 0 km/h 0 hPa 15:30
Bieno TN 17.6°C 0% 0°C 1.4 mm 0 mm/h 0 km/h 0 hPa 15:30
Brentonico TN 17.3°C 0% 0°C 0.8 mm 0 mm/h 0 km/h 0 hPa 15:30
Bresimo TN 10.1°C 0% 0°C 3.2 mm 0 mm/h 0 km/h 0 hPa 15:30
Campitello di Fassa TN 8.8°C 0% 0°C 4.2 mm 0 mm/h 0 km/h 0 hPa 15:30
Canal San Bovo TN 16.1°C 0% 0°C 0.8 mm 0 mm/h 0 km/h 0 hPa 15:30
Canazei TN 12.6°C 0% 0°C 4.4 mm 0 mm/h 6.8 km/h 0 hPa 15:30
Canal San Bovo TN 16.6°C 0% 0°C 1.2 mm 0 mm/h 6.8 km/h 0 hPa 15:30
Capriana TN 16.1°C 0% 0°C 1 mm 0 mm/h 0 km/h 0 hPa 15:30
Peio TN 7°C 0% 0°C 2.6 mm 0 mm/h 4.3 km/h 0 hPa 15:30
Castelfondo TN 10°C 0% 0°C 3.2 mm 0 mm/h 0 km/h 0 hPa 15:30
Castello Tesino TN 16.7°C 0% 0°C 4 mm 0 mm/h 3.6 km/h 0 hPa 15:30
Cavalese TN 18.6°C 0% 0°C 4.2 mm 0 mm/h 7.6 km/h 0 hPa 15:30
Cembra TN 20.1°C 0% 0°C 2 mm 0 mm/h 3.6 km/h 0 hPa 15:30
Centa San Nicolò TN 17.7°C 0% 0°C 2.6 mm 0 mm/h 0 km/h 0 hPa 15:30
Tesero TN 10.5°C 0% 0°C 5.6 mm 0 mm/h 0 km/h 0 hPa 15:30
Fai della Paganella TN 8.3°C 0% 0°C 3.8 mm 0 mm/h 0 km/h 0 hPa 15:30
Cles TN 20.5°C 0% 0°C 2.8 mm 0 mm/h 0 km/h 0 hPa 15:30
Daone TN 10.6°C 0% 0°C 1.8 mm 0 mm/h 3.2 km/h 0 hPa 15:30
Daone TN 17.1°C 0% 0°C 1.8 mm 0 mm/h 0 km/h 0 hPa 15:30
Pinzolo TN 9.8°C 0% 0°C 2.2 mm 0 mm/h 6.1 km/h 0 hPa 15:30
Dro TN 22.9°C 0% 0°C 1.6 mm 0 mm/h 11.2 km/h 0 hPa 15:30
Folgaria TN 15.2°C 0% 0°C 1.4 mm 0 mm/h 0 km/h 0 hPa 15:30
Fondo TN 19.2°C 0% 0°C 2.8 mm 0 mm/h 0 km/h 0 hPa 15:30
Tiarno di Sopra TN 18.2°C 0% 0°C 1 mm 0 mm/h 0 km/h 0 hPa 15:30
Giustino TN 19.1°C 0% 0°C 1.8 mm 0 mm/h 0 km/h 0 hPa 15:30
Grigno TN 20.8°C 0% 0°C 6.2 mm 0 mm/h 7.2 km/h 0 hPa 15:30
Grigno TN 12.3°C 0% 0°C 5.6 mm 0 mm/h 0 km/h 0 hPa 15:30
Canal San Bovo TN 10.6°C 0% 0°C 3.4 mm 0 mm/h 0 km/h 0 hPa 15:30
Lona-Lases TN 18.3°C 0% 0°C 1.6 mm 0 mm/h 0 km/h 0 hPa 15:30
Lavarone TN 17.4°C 0% 0°C 2 mm 0 mm/h 0 km/h 0 hPa 15:30
Levico Terme TN 22.9°C 0% 0°C 2.4 mm 0 mm/h 4.7 km/h 0 hPa 15:30
Malè TN 17.7°C 0% 0°C 5.6 mm 0 mm/h 4.7 km/h 0 hPa 15:30
Mezzana TN 16.9°C 0% 0°C 5 mm 0 mm/h 1.8 km/h 0 hPa 15:30
Mezzano TN 17.4°C 0% 0°C 0.8 mm 0 mm/h 4.7 km/h 0 hPa 15:30
Mezzolombardo TN 21.6°C 0% 0°C 1.4 mm 0 mm/h 0 km/h 0 hPa 15:30
Moena TN 14.6°C 0% 0°C 2.2 mm 0 mm/h 0 km/h 0 hPa 15:30
Molveno TN 17.2°C 0% 0°C 1 mm 0 mm/h 0 km/h 0 hPa 15:30
Montagne TN 17.2°C 0% 0°C 1 mm 0 mm/h 0 km/h 0 hPa 15:30
Trento TN 12.5°C 0% 0°C 2.2 mm 0 mm/h 2.9 km/h 0 hPa 15:30
Ragoli TN 7.4°C 0% 0°C 2.8 mm 0 mm/h 0 km/h 0 hPa 15:30
Palù del Fersina TN 9.9°C 0% 0°C 1.8 mm 0 mm/h 0 km/h 0 hPa 15:30
Mori TN 21.6°C 0% 0°C 1.2 mm 0 mm/h 0 km/h 0 hPa 15:30
Castello Tesino TN 10.1°C 0% 0°C 2.4 mm 0 mm/h 7.9 km/h 0 hPa 15:30
Tonadico TN 12.6°C 0% 0°C 4.6 mm 0 mm/h 0 km/h 0 hPa 15:30
Vigo di Fassa TN 11.5°C 0% 0°C 4.6 mm 0 mm/h 0 km/h 0 hPa 15:30
Telve TN 8.5°C 0% 0°C 1.4 mm 0 mm/h 0.7 km/h 0 hPa 15:30
Ruffrè-Mendola TN 14.4°C 0% 0°C 2.6 mm 0 mm/h 0 km/h 0 hPa 15:30
Vallarsa TN 14.5°C 0% 0°C 0.4 mm 0 mm/h 6.1 km/h 0 hPa 15:30
Siror TN 9.4°C 0% 0°C 3 mm 0 mm/h 8.3 km/h 0 hPa 15:30
Folgaria TN 13.8°C 0% 0°C 1.4 mm 0 mm/h 11.2 km/h 0 hPa 15:30
Vermiglio TN 9.3°C 0% 0°C 3.2 mm 0 mm/h 15.5 km/h 0 hPa 15:30
Predazzo TN 8.4°C 0% 0°C 3.6 mm 0 mm/h 4.7 km/h 0 hPa 15:30
Peio TN 12.3°C 0% 0°C 5.2 mm 0 mm/h 5 km/h 0 hPa 15:30
Pergine Valsugana TN 22.1°C 0% 0°C 1.8 mm 0 mm/h 0 km/h 0 hPa 15:30
Canazei TN 8.4°C 0% 0°C 7.4 mm 0 mm/h 0 km/h 0 hPa 15:30
Peio TN 11.4°C 0% 0°C 0.2 mm 0 mm/h 0 km/h 0 hPa 15:30
Peio TN 9.6°C 0% 0°C 6.2 mm 0 mm/h 0 km/h 0 hPa 15:30
Pieve di Bono TN 19.4°C 0% 0°C 1.6 mm 0 mm/h 0 km/h 0 hPa 15:30
Pieve Tesino TN 11.8°C 0% 0°C 1.2 mm 0 mm/h 0 km/h 0 hPa 15:30
Pinzolo TN 18.1°C 0% 0°C 2 mm 0 mm/h 2.5 km/h 0 hPa 15:30
Pinzolo TN 10.6°C 0% 0°C 3 mm 0 mm/h 0 km/h 0 hPa 15:30
Pinzolo TN 7.8°C 0% 0°C 5.8 mm 0 mm/h 0 km/h 0 hPa 15:30
Predazzo TN 15.6°C 0% 0°C 4 mm 0 mm/h 0 km/h 0 hPa 15:30
Rabbi TN 15.5°C 0% 0°C 2.4 mm 0 mm/h 2.5 km/h 0 hPa 15:30
Romeno TN 18.4°C 0% 0°C 2.2 mm 0 mm/h 0 km/h 0 hPa 15:30
Ronzo-Chienis TN 20°C 0% 0°C 1 mm 0 mm/h 4.7 km/h 0 hPa 15:00
Rovereto TN 23.9°C 0% 0°C 2.2 mm 0 mm/h 5.8 km/h 0 hPa 15:30
Rovereto TN 10.6°C 0% 0°C 0.6 mm 0 mm/h 7.6 km/h 0 hPa 15:30
Rumo TN 15.7°C 0% 0°C 3 mm 0 mm/h 4.3 km/h 0 hPa 15:30
San Lorenzo in Banale TN 16.8°C 0% 0°C 0.6 mm 0 mm/h 5 km/h 0 hPa 15:30
San Martino di Castrozza TN 12.2°C 0% 0°C 4.8 mm 0 mm/h 0.4 km/h 0 hPa 15:30
Padergnone TN 20.3°C 0% 0°C 0.4 mm 0 mm/h 0 km/h 0 hPa 15:30
Sant'Orsola Terme TN 17.2°C 0% 0°C 1.8 mm 0 mm/h 0 km/h 0 hPa 15:30
Segonzano TN 21.5°C 0% 0°C 1.6 mm 0 mm/h 0 km/h 0 hPa 15:30
Spormaggiore TN 20.4°C 0% 0°C 1.8 mm 0 mm/h 0 km/h 0 hPa 15:30
Storo TN 20.8°C 0% 0°C 1.4 mm 0 mm/h 0 km/h 0 hPa 15:30
Telve TN 19.7°C 0% 0°C 1.2 mm 0 mm/h 0 km/h 0 hPa 15:30
Telve TN 15.9°C 0% 0°C 3.8 mm 0 mm/h 0 km/h 0 hPa 15:30
Tenno TN 19.4°C 0% 0°C 0.8 mm 0 mm/h 0 km/h 0 hPa 15:30
Terragnolo TN 18.5°C 0% 0°C 1.2 mm 0 mm/h 0 km/h 0 hPa 15:30
Tione di Trento TN 19.8°C 0% 0°C 1.2 mm 0 mm/h 9.4 km/h 0 hPa 15:30
Tonadico TN 16.4°C 0% 0°C 3 mm 0 mm/h 0 km/h 0 hPa 15:30
Nago-Torbole TN 21.7°C 0% 0°C 0.8 mm 0 mm/h 20.5 km/h 0 hPa 15:30
Tiarno di Sopra TN 10.8°C 0% 0°C 0.8 mm 0 mm/h 9.4 km/h 0 hPa 15:30
Trento TN 21.5°C 0% 0°C 1.8 mm 0 mm/h 0 km/h 0 hPa 15:30
Trento TN 21.8°C 0% 0°C 0.4 mm 0 mm/h 4 km/h 0 hPa 15:30
Trento TN 22.1°C 0% 0°C 0.6 mm 0 mm/h 0 km/h 0 hPa 15:30
Trento TN 23.3°C 0% 0°C 0.4 mm 0 mm/h 9.7 km/h 0 hPa 15:30
Tres TN 19.4°C 0% 0°C 2 mm 0 mm/h 0 km/h 0 hPa 15:30
San Lorenzo in Banale TN 9.4°C 0% 0°C 1.6 mm 0 mm/h 0 km/h 0 hPa 15:30
Breguzzo TN 14.4°C 0% 0°C 2.6 mm 0 mm/h 0 km/h 0 hPa 15:30
Carisolo TN 13.7°C 0% 0°C 2.4 mm 0 mm/h 4.3 km/h 0 hPa 15:30
Mezzano TN 14.5°C 0% 0°C 2 mm 0 mm/h 0 km/h 0 hPa 15:30
Borgo Valsugana TN 15.8°C 0% 0°C 2 mm 0 mm/h 0 km/h 0 hPa 15:30
Vallarsa TN 18.7°C 0% 0°C 0.4 mm 0 mm/h 0 km/h 0 hPa 15:30
Vermiglio TN 4.7°C 0% 0°C 4.4 mm 0 mm/h 10.1 km/h 0 hPa 15:30
Vermiglio TN 12.4°C 0% 0°C 3.6 mm 0 mm/h 0 km/h 0 hPa 15:30
Vigo di Fassa TN 8°C 0% 0°C 10.6 mm 0 mm/h 0 km/h 0 hPa 15:30
Villa Rendena TN 14.2°C 0% 0°C 3.4 mm 0 mm/h 0 km/h 0 hPa 15:30
Zambana TN 21.5°C 0% 0°C 0.8 mm 0 mm/h 0 km/h 0 hPa 15:30
Ziano di Fiemme TN 11.2°C 0% 0°C 3.6 mm 0 mm/h 0 km/h 0 hPa 15:30
Zuclo TN 10°C 0% 0°C 1.4 mm 0 mm/h 0 km/h 0 hPa 15:00
Borgo Valsugana TN 20.7°C 66% 14.1°C 1.1 mm 0 mm/h 2.2 km/h 1008 hPa 15:39
Trento TN 23.1°C 61% 15.1°C 0.8 mm 0 mm/h 1.6 km/h 1006.8 hPa 15:41
Pinzolo TN 11.4°C 91% 10°C 2 mm 0 mm/h 13 km/h 1011.4 hPa 15:39
Fiavè TN 17.1°C 88% 15.1°C 1 mm 0 mm/h 4.7 km/h 1008.1 hPa 15:41
Calliano TN 24.4°C 62% 16.6°C 2.6 mm 0 mm/h 9.7 km/h 1006.7 hPa 15:41
Siror TN 18.1°C 84% 15.6°C 5.3 mm 0 mm/h 0 km/h 1009.1 hPa 15:39
Bleggio Superiore TN 18.4°C 81% 15.1°C 0.9 mm 0 mm/h 0 km/h 1006.4 hPa 15:42
Isera TN 21.7°C 65% 14.8°C 2.9 mm 0 mm/h 8.3 km/h 1007 hPa 15:42
Fiavè TN 11°C 95% 10.2°C 1.2 mm 0 mm/h 1.8 km/h 1006.3 hPa 15:41
Pergine Valsugana TN 22°C 67% 15.6°C 0 mm 0 mm/h 4.8 km/h 1008.6 hPa 15:39
Bleggio Inferiore TN 14.7°C 88% 12.7°C 1.4 mm 0 mm/h 0.3 km/h 1009.5 hPa 15:41
Bressanone BZ 17.9°C 85% 15.6°C 2.8 mm 0 mm/h 0 km/h 1007.6 hPa 15:40
Cavedine TN 22.2°C 71% 16.7°C 1.2 mm 0 mm/h 6.4 km/h 1009.4 hPa 15:39
Baselga di Pinè TN 9.3°C 97% 8.9°C 2.6 mm 0 mm/h 1 km/h 1009.8 hPa 15:41
Badia BZ 12°C 89% 10.2°C 4.4 mm 1.2 mm/h 1.6 km/h 1008.9 hPa 15:41
Ospedaletto TN 20.3°C 80% 16.7°C 1.3 mm 0 mm/h 4 km/h 967.6 hPa 15:39
Valle di Casies BZ 7.1°C 0% 0°C 0 mm 0 mm/h 0 km/h 0 hPa 15:20
Barbiano BZ 6.4°C 0% 0°C 0 mm 0 mm/h 2.5 km/h 0 hPa 15:30
Valle di Casies BZ 3.7°C 99% 0°C 0 mm 0 mm/h 3.2 km/h 0 hPa 15:30
Curon Venosta BZ 2.7°C 100% 0°C 0 mm 0 mm/h 8.6 km/h 0 hPa 15:30
Curon Venosta BZ 10°C 82% 0°C 0 mm 0 mm/h 0 km/h 0 hPa 15:30
Stelvio BZ 0.1°C 0% 0°C 0 mm 0 mm/h 4 km/h 0 hPa 15:30
Stelvio BZ 5.3°C 91% 0°C 0 mm 0 mm/h 5.4 km/h 0 hPa 15:30
San Leonardo in Passiria BZ 6.6°C 0% 0°C 0 mm 0 mm/h 14 km/h 0 hPa 15:30
Predoi BZ -0.2°C 0% 0°C 0 mm 0 mm/h 7.2 km/h 0 hPa 15:30
Predoi BZ 9.4°C 85% 0°C 0 mm 0 mm/h 1.8 km/h 0 hPa 15:30
Badia BZ 7.9°C 95% 0°C 0 mm 0 mm/h 1.8 km/h 0 hPa 15:30
Corvara in Badia BZ 3.5°C 99% 0°C 0 mm 0 mm/h 1.1 km/h 0 hPa 15:30
Moso in Passiria BZ -0.2°C 98% 0°C 0 mm 0 mm/h 6.1 km/h 0 hPa 15:20
Moso in Passiria BZ 8.8°C 0% 0°C 0 mm 0 mm/h 0.7 km/h 0 hPa 15:30
San Candido BZ 3.5°C 100% 0°C 0 mm 0 mm/h 0.4 km/h 0 hPa 15:00
Sesto BZ 9.5°C 98% 0°C 0 mm 0 mm/h 0.7 km/h 0 hPa 15:30
Ultimo BZ 7.1°C 100% 0°C 0 mm 0 mm/h 4.7 km/h 0 hPa 15:30
Nova Ponente BZ 8.2°C 96% 0°C 0 mm 0 mm/h 0.4 km/h 0 hPa 15:30
Senales BZ 0.9°C 99% 0°C 0 mm 0 mm/h 0 km/h 0 hPa 15:30
Brennero BZ 8.3°C 94% 0°C 0 mm 0 mm/h 2.9 km/h 0 hPa 15:30
Vandoies BZ 3°C 0% 0°C 0 mm 0 mm/h 5 km/h 0 hPa 15:30
Vandoies BZ 7.4°C 0% 0°C 0 mm 0 mm/h 2.9 km/h 0 hPa 15:30
Sarentino BZ 8.7°C 89% 0°C 0 mm 0 mm/h 6.8 km/h 0 hPa 15:30
Lauregno BZ 8.2°C 100% 0°C 0 mm 0 mm/h 3.6 km/h 0 hPa 15:30
Senales BZ 0°C 0% 0°C 0 mm 0 mm/h 0.4 km/h 0 hPa 15:30
Vipiteno BZ 15.4°C 89% 0°C 2.1 mm 0 mm/h 8.6 km/h 0 hPa 15:30
Moso in Passiria BZ 11.1°C 100% 0°C 7.7 mm 0 mm/h 3.2 km/h 1008.3 hPa 15:30
Naturno BZ 20.1°C 71% 0°C 1.8 mm 0 mm/h 12.2 km/h 1008.1 hPa 15:30
Sarentino BZ 12.2°C 96% 0°C 3.3 mm 0 mm/h 0 km/h 1008.9 hPa 15:20
Predoi BZ 12.9°C 83% 0°C 3.9 mm 0 mm/h 7.2 km/h 1007.5 hPa 15:30
Racines BZ 12.8°C 97% 0°C 6.7 mm 0 mm/h 0 km/h 1011.2 hPa 15:30
Campo Tures BZ 15.6°C 98% 0°C 2.3 mm 0 mm/h 0.4 km/h 1005.2 hPa 15:30
Campo Tures BZ 11.2°C 100% 0°C 4.2 mm 0 mm/h 0.7 km/h 1007.9 hPa 15:30
Bressanone BZ 4.8°C 100% 0°C 0 mm 0 mm/h 9 km/h 0 hPa 15:30
Silandro BZ 20.9°C 71% 0°C 2.5 mm 0 mm/h 12.6 km/h 1005.4 hPa 15:30
Sarentino BZ 14.9°C 90% 0°C 2.5 mm 0 mm/h 9 km/h 1008.4 hPa 15:30
Salorno BZ 23.4°C 65% 0°C 1.1 mm 0 mm/h 20.9 km/h 1007.6 hPa 15:30
Brunico BZ 16.3°C 90% 0°C 4.8 mm 0 mm/h 11.2 km/h 1007.8 hPa 15:30
Nova Ponente BZ 12.7°C 94% 0°C 3.3 mm 0 mm/h 10.4 km/h 1007.6 hPa 15:30
Bolzano BZ 24°C 64% 0°C 1.9 mm 0 mm/h 4.7 km/h 1007.5 hPa 15:30
Ora BZ 21.5°C 80% 0°C 1.7 mm 0 mm/h 0 km/h 1007 hPa 15:30
Varna BZ 18.8°C 82% 0°C 3.7 mm 0 mm/h 5 km/h 1007 hPa 15:30
Lasa BZ 19.3°C 69% 0°C 4.3 mm 0 mm/h 13.7 km/h 1006.5 hPa 15:30
Lagundo BZ 21°C 69% 0°C 1.6 mm 0 mm/h 2.2 km/h 1007.8 hPa 15:30
Rasun Anterselva BZ 13.1°C 93% 0°C 7.6 mm 0 mm/h 3.6 km/h 1005.1 hPa 15:30
Vadena BZ 22.9°C 67% 0°C 1.8 mm 0 mm/h 2.5 km/h 1008 hPa 15:30
Fortezza BZ 17.4°C 81% 0°C 1.3 mm 0 mm/h 1.8 km/h 1005.9 hPa 15:20
Barbiano BZ 18.1°C 97% 0°C 5.8 mm 0 mm/h 0.7 km/h 1006.7 hPa 15:20
Caldaro sulla Strada del Vino BZ 20.3°C 82% 0°C 2 mm 0 mm/h 5.4 km/h 1007.4 hPa 15:20
San Martino in Passiria BZ 17°C 98% 0°C 1.2 mm 0 mm/h 1.1 km/h 1007.9 hPa 15:20
Ultimo BZ 14.1°C 96% 0°C 5.2 mm 0 mm/h 4.3 km/h 1008.4 hPa 15:20
Selva di Val Gardena BZ 12.6°C 73% 0°C 4.5 mm 0 mm/h 0 km/h 1007.4 hPa 15:20
Rio di Pusteria BZ 12.5°C 95% 0°C 4.8 mm 0 mm/h 4 km/h 1007.6 hPa 15:20
Curon Venosta BZ 12.8°C 100% 0°C 1.6 mm 0 mm/h 8.3 km/h 1006.6 hPa 15:20
Tubre BZ 14.6°C 92% 0°C 0.1 mm 0 mm/h 7.9 km/h 1006.9 hPa 15:20
Dobbiaco BZ 14.7°C 80% 0°C 2.4 mm 0 mm/h 5.4 km/h 1008 hPa 15:20
Fiè allo Sciliar BZ 18.6°C 83% 0°C 3.7 mm 0 mm/h 5.8 km/h 1004.7 hPa 15:20
San Martino in Badia BZ 15.1°C 77% 0°C 2.2 mm 0 mm/h 3.6 km/h 1006.3 hPa 15:20
Castelrotto BZ 9.1°C 91% 0°C 5.7 mm 0 mm/h 3.2 km/h 0 hPa 15:20
Martello BZ 11.4°C 95% 0°C 2.6 mm 0 mm/h 3.6 km/h 1009.3 hPa 15:20
Malles Venosta BZ 13.5°C 97% 0°C 1.8 mm 0 mm/h 0 km/h 1006.6 hPa 15:20
Val di Vizze BZ 13.3°C 98% 0°C 1.6 mm 0 mm/h 1.8 km/h 1007.3 hPa 15:30
Valle di Casies BZ 12.1°C 93% 0°C 3.6 mm 0 mm/h 3.2 km/h 1012.1 hPa 15:30
Stelvio BZ 11.6°C 84% 0°C 1 mm 0 mm/h 0 km/h 1004.5 hPa 15:20
Terento BZ 13°C 87% 0°C 2.9 mm 0 mm/h 6.5 km/h 1008.3 hPa 15:30
Ultimo BZ 9.5°C 100% 0°C 4.7 mm 0 mm/h 0 km/h 1007.4 hPa 15:30
Monguelfo BZ 15.9°C 75% 0°C 3.2 mm 0 mm/h 11.2 km/h 1004 hPa 15:30
Nova Levante BZ 15.3°C 89% 0°C 4.7 mm 0 mm/h 0 km/h 1003.2 hPa 15:30
Selva dei Molini BZ 12.8°C 100% 0°C 3.6 mm 0 mm/h 0 km/h 1008.7 hPa 15:30
Braies BZ 13.8°C 86% 0°C 4.5 mm 0 mm/h 0 km/h 1010.1 hPa 15:30
Senales BZ 11.3°C 94% 0°C 2.1 mm 0 mm/h 0 km/h 1008.1 hPa 15:30
Stelvio BZ 5.2°C 99% 0°C 0 mm 0 mm/h 8.6 km/h 0 hPa 15:30
Senales BZ 9.7°C 100% 0°C 0 mm 0 mm/h 0 km/h 0 hPa 15:30
Vandoies BZ 17.8°C 78% 0°C 2.3 mm 0 mm/h 10.8 km/h 1006.2 hPa 15:30
Curon Venosta BZ 7.1°C 93% 0°C 0 mm 0 mm/h 1.4 km/h 0 hPa 15:30
Moso in Passiria BZ 7.1°C 100% 0°C 0 mm 0 mm/h 5 km/h 0 hPa 15:30
San Genesio Atesino BZ 16.6°C 88% 0°C 2.6 mm 0 mm/h 3.2 km/h 1008.4 hPa 15:30
Racines BZ 8.6°C 100% 0°C 0 mm 0 mm/h 4.3 km/h 0 hPa 15:20
Ultimo BZ 3.5°C 0% 0°C 0 mm 0 mm/h 0 km/h 0 hPa 15:30
Valle Aurina BZ 6°C 0% 0°C 0 mm 0 mm/h 2.2 km/h 0 hPa 15:00
Braies BZ 6.5°C 95% 0°C 0 mm 0 mm/h 6.1 km/h 0 hPa 15:30
Gargazzone BZ 22°C 74% 0°C 1.9 mm 0 mm/h 2.9 km/h 1008.3 hPa 15:30
Bronzolo BZ 23.5°C 66% 0°C 2.8 mm 0 mm/h 5.4 km/h 1006.8 hPa 15:30